{"data":{"norad_id":51715,"intl_designator":"2022-016B","name":"STARLINK-3533","alt_names":[],"object_type":"PAYLOAD","status":"ACTIVE","operator":null,"country":"US","launch_date":"2022-02-21","launch_site_code":"AFETR","launch_vehicle":null,"mission":null,"orbit_class":"UNKNOWN","rcs_meters":null,"size_class":null,"mass_kg":null,"dimensions":null,"purposes":["comms"],"wikipedia_slug":null,"has_3d_model":false,"image_url":null,"decayed_at":null,"tle_current":{"epoch":"2026-05-24T23:29:56.927904Z","epoch_age_seconds":80125,"freshness":"FRESH","line1":"1 51715U 22016B   26144.97913111  .00002787  00000+0  19320-3 0  9990","line2":"2 51715  53.2112 346.6544 0001967  89.4589 270.6628 15.08824986236073","mean_motion":15.08824986,"eccentricity":0.0001967,"inclination_deg":53.2112,"raan_deg":346.6544,"arg_perigee_deg":89.4589,"mean_anomaly_deg":270.6628,"bstar":0.0001932,"rev_number":23607,"period_min":95.438504356794,"perigee_km":538.42852503671,"apogee_km":541.15003723571,"semimajor_km":6917.9262811362,"source":"CELESTRAK","updated_at":"2026-05-25T13:38:16.919838Z"}}}